Location: Ebenezer
(18.2167°N, 63.0667°W)
Time: 20:54:16
(UTC+00:00)

Cosmos 2058 - Pass Details

Date: 26 January 2020
Orbit: 563 x 583 km, 82.5° (Epoch: 23 February)

Event Time Altitude Azimuth Distance (km) Brightness Sun altitude
Rises 23:13:40 0° 183° (S) 2,746 6.6 -16.9°
Reaches altitude 10° 23:15:50 10° 183° (S) 1,854 5.7 -17.4°
Maximum altitude 23:19:55 87° 93° (E) 572 2.8 -18.3°
Enters shadow 23:23:44 12° 6° (N) 1,745 5.2 -19.2°
